                ,  2.047,  2.194,  2.342,  2.490,  2.638,  2.785,  2.933,  3.081,  3.229,  3.376,  3.524,  3.672,  3.819,  3.967,  4.115,  4.263,  4.410,  4.558,  4.706,  4.853,  5.001,  5.149,  5.297,  5.444,  5.592,  5.740,  5.888,  6.035,  6.183,  6.331,  6.478,  6.626,  6.774,  6.922,  7.069,  7.217,  7.365,  7.512,  7.660,  7.808,  7.956,  8.103,  8.251,  8.399,  8.547,  8.694,  8.842,  8.990,  9.137,  9.285,  9.433,  9.581,  9.728,  9.876, 10.024, 10.171, 10.319, 10.467, 10.615, 10.762, 10.910, 11.058, 11.205, 11.353, 11.501, 11.649, 11.796, 11.944, 12.092, 12.240, 12.387, 12.535, 12.683, 12.830, 12.978, 13.126, 13.274, 13.421, 13.569, 13.717, 13.864, 14.012, 14.160, 14.308, 14.455, 14.603, 14.751, 14.899, 15.046, 15.194, 15.342, 15.489, 15.637, 15.785, 15.933, 16.080, 16.228, 16.376, 16.523, 16.671, 16.819, 16.967, 17.114, 17.262, 17.410, 17.557, 17.705, 17.853, 18.001, 18.148, 18.296, 18.444, 18.592, 18.739, 18.887, 19.035, 19.182, 19.330, 19.478, 19.626
2007/03/16 00:00,  999.0,  999.0,  999.0,  -21.2,  999.0,  999.0,  999.0,  999.0,  999.0,  999.0,  999.0,  999.0,  999.0,  999.0,  999.0,  999.0,  999.0,    0.1,    0.2,    0.6,    1.0,    0.9,    0.4,    0.3,    0.2,    2.6,    2.1,    2.2,    1.0,    0.7,   -0.1,    4.6,   -2.4,   -5.7,   -6.3,   -5.1,   -5.2,   -4.1,   -2.7,   -2.9,   -3.1,   -3.0,   -3.7,   -4.8,   -5.8,   -6.6,   -6.4,   -5.5,   -4.9,   -5.7,   -4.6,   -3.5,   -4.1,   -6.5,   -7.9,   -8.7,   -9.4,  -10.2,  -10.4,  -10.5,   -9.6,   -9.6,   -8.4,   -8.4,  999.0,   -8.3,   -8.7,   -8.9,   -9.8,  -11.0,  999.0,  999.0,  999.0,  999.0,  999.0,  999.0,  999.0,  999.0,  -14.9,  999.0,  999.0,  999.0,  999.0,  999.0,  999.0,  999.0,  999.0,  -16.7,  -18.3,  -15.4,  -11.2,   -7.9,   -5.8,   -1.3,    4.0,    5.4,  999.0,  999.0,  999.0,  999.0,  999.0,  999.0,  999.0,    3.4,    1.8,  999.0,  999.0,  999.0,  999.0,  999.0,  999.0,  999.0,  999.0,  999.0,  999.0,  999.0,  999.0,  999.0,  999.0,  999.0
2007/03/16 00:10,  -20.9,  -21.2,  -19.9,  -21.0,  999.0,  999.0,  -25.0,  -23.1,  -23.1,  -27.1,  -23.2,  -23.7,   -0.6,   -0.8,   -0.5,  999.0,  999.0,   -0.1,   -0.0,    0.1,    1.0,    1.2,    1.3,    1.5,    4.6,    4.0,    1.0,    0.5,    0.6,   -0.9,   -0.4,  999.0,   -3.6,   -5.5,   -5.8,   -5.9,   -2.3,   -3.0,   -3.4,   -3.6,   -2.2,   -2.6,   -3.2,   -4.3,   -5.4,   -6.2,   -5.9,   -5.2,   -4.7,   -4.0,   -4.1,   -5.0,   -5.9,   -7.0,   -8.5,   -9.0,   -9.6,  -10.2,  -10.3,  -10.2,   -9.8,   -9.4,   -8.1,   -8.3,   -8.7,   -7.9,   -8.8,   -9.5,   -9.3,  -11.2,  999.0,  999.0,  999.0,  999.0,  999.0,  -11.6,  999.0,  999.0,  999.0,  999.0,  999.0,  999.0,  999.0,  999.0,  999.0,  999.0,  999.0,  -17.0,  -18.2,  -15.5,  -12.3,   -8.6,   -5.9,   -2.1,    2.9,    4.6,    6.3,  999.0,  999.0,   -0.0,  999.0,    1.1,  999.0,    3.1,  999.0,    1.2,  999.0,  999.0,  999.0,    4.7,  999.0,  999.0,  999.0,  999.0,  999.0,  999.0,  999.0,  999.0,  999.0,  999.0
2007/03/16 00:20,   -0.0,  999.0,  -20.0,  999.0,  -21.1,  999.0,  999.0,  999.0,  999.0,   -1.9,   -1.8,   -1.8,   -2.5,  999.0,  999.0,  999.0,  999.0,  999.0,   -0.2,   -0.3,    0.6,    0.2,   -0.3,    0.3,    0.2,   -0.2,   -0.6,   -0.5,   -0.7,   -0.8,    0.0,   -1.2,    0.3,   -3.8,   -5.0,   -5.2,   -2.1,   -2.0,   -2.1,   -1.5,   -1.7,   -1.8,   -2.5,   -4.1,   -5.1,   -4.9,   -4.1,   -3.5,   -3.5,   -4.2,   -4.8,   -5.9,   -6.9,   -7.4,   -8.6,   -8.9,   -9.3,   -9.4,   -9.3,   -9.4,   -8.9,   -9.0,  -10.3,  999.0,   -9.2,   -6.9,   -9.1,   -9.5,  -10.3,  999.0,  999.0,  999.0,  -12.0,  999.0,  999.0,  -12.1,  999.0,  999.0,  999.0,  999.0,  999.0,  999.0,  999.0,  999.0,  999.0,  999.0,  999.0,  -15.7,  -16.9,  -15.8,  -11.4,   -8.3,   -4.2,  999.0,    4.1,  999.0,    6.4,  999.0,  999.0,    0.8,  999.0,  999.0,  999.0,    2.8,    1.8,    1.8,  999.0,  999.0,  999.0,  999.0,  999.0,  999.0,  999.0,  999.0,  999.0,  999.0,  999.0,  999.0,  999.0,  999.0
2007/03/16 00:30,    3.8,  999.0,    0.5,    0.2,   -0.2,   -0.4,   -0.9,   -1.9,   -2.1,   -2.9,   -3.3,   -3.3,   -2.9,   -2.4,   -2.0,  999.0,  999.0,   -0.7,    0.1,   -0.2,    0.4,   -0.2,   -0.3,    0.3,   -0.2,   -0.1,   -0.6,    0.7,    0.1,    0.4,    0.4,   -0.1,   -1.2,   -1.7,   -2.0,   -2.4,   -1.0,   -2.5,   -3.5,   -1.6,   -1.6,   -1.9,   -2.7,   -3.9,   -4.5,   -4.5,   -3.9,   -2.7,   -3.2,   -4.9,   -5.7,   -6.4,   -6.9,   -7.2,   -8.0,   -8.0,   -7.6,   -7.2,   -6.5,   -6.9,   -7.2,   -7.7,   -7.9,   -7.9,   -8.7,   -4.6,   -4.8,   -7.3,   -3.6,  999.0,   -5.3,  999.0,  999.0,  999.0,  999.0,  -12.6,  -14.5,  999.0,  999.0,  -13.6,  -15.7,  999.0,  999.0,  999.0,  999.0,  999.0,  999.0,  -15.9,  -17.0,  -17.3,  -10.8,   -8.6,   -2.3,    1.1,    3.1,  999.0,  999.0,  999.0,   -0.3,    0.4,  999.0,  999.0,  999.0,  999.0,    1.2,    1.4,  999.0,    3.1,    3.0,  999.0,  999.0,  999.0,    2.7,    3.4,  999.0,  999.0,  999.0,  999.0,  999.0,  999.0
2007/03/16 00:40,    3.5,  999.0,  999.0,  999.0,   -0.2,   -1.2,   -1.9,   -2.5,   -2.6,   -2.1,   -2.0,   -2.3,   -2.7,   -2.4,   -2.0,  999.0,  999.0,  999.0,   -0.4,   -0.9,   -0.7,   -0.8,   -1.1,   -0.6,   -0.6,    0.2,    0.7,    0.6,  999.0,    1.5,   -0.3,  999.0,  999.0,   -0.8,   -1.3,   -0.9,   -0.5,   -0.2,   -0.6,   -1.6,   -1.6,   -1.6,   -2.4,   -3.4,   -3.8,   -3.7,   -3.0,   -2.6,   -2.7,   -4.5,   -5.6,   -6.4,   -6.5,   -6.3,   -6.3,   -6.2,   -6.2,   -6.3,   -5.9,   -6.4,   -6.5,   -6.8,   -6.5,   -6.8,   -7.0,   -5.3,   -6.6,   -8.0,   -8.0,   -9.5,  -10.1,   -9.7,  -11.9,  -11.0,  -12.7,  -14.2,  -14.4,  999.0,  999.0,  999.0,  999.0,  999.0,  999.0,  999.0,  999.0,  999.0,  999.0,  -16.1,  -17.2,  999.0,  999.0,  999.0,   -3.9,    1.2,  999.0,  999.0,  999.0,  999.0,    2.2,  999.0,  999.0,  999.0,  999.0,  999.0,    1.6,    2.2,  999.0,  999.0,  999.0,  999.0,  999.0,  999.0,  999.0,  999.0,  999.0,  999.0,  999.0,  999.0,  999.0,  999.0
2007/03/16 00:50,    3.4,    3.9,    0.7,   -0.5,   -1.1,   -1.3,   -2.1,   -3.0,   -2.7,   -2.2,   -2.0,   -3.6,   -3.5,   -3.0,   -2.7,   -2.3,  999.0,   -5.1,   -1.1,   -0.2,   -0.5,   -0.5,   -0.4,   -1.2,   -2.2,   -2.1,    1.1,    1.1,    0.2,    3.5,    2.5,   -0.5,   -4.3,   -4.1,   -1.5,   -1.6,   -1.2,   -1.1,   -0.4,   -0.7,   -1.1,   -2.7,   -1.3,   -2.3,   -2.8,   -2.1,   -1.7,   -1.8,   -2.7,   -4.5,   -5.4,   -6.0,   -6.4,   -6.2,   -5.8,   -5.6,   -5.7,   -5.7,   -5.7,   -5.9,   -5.4,   -5.3,   -5.5,   -5.5,   -5.7,   -4.0,   -6.2,   -7.5,   -8.4,   -9.9,  -10.4,  -10.5,  -11.6,  -12.1,  -12.9,  999.0,  -14.5,  999.0,  999.0,  999.0,  999.0,  999.0,  999.0,  999.0,  999.0,  999.0,  -17.1,  -18.9,  -17.9,  -16.0,   -9.8,   -8.4,   -5.3,  999.0,    3.9,  999.0,    5.8,  999.0,  999.0,  999.0,    1.5,  999.0,  999.0,  999.0,    2.2,    3.2,  999.0,  999.0,  999.0,  999.0,  999.0,  999.0,  999.0,    5.6,  999.0,  999.0,  999.0,  999.0,  999.0,  999.0
2007/03/16 01:00,    3.2,    4.0,    1.0,   -0.6,   -0.9,   -1.2,   -1.5,   -3.3,   -3.4,   -3.4,   -3.7,   -4.0,   -3.6,   -3.5,   -3.1,   -3.0,  999.0,  999.0,  999.0,  999.0,    1.1,    0.3,   -0.4,   -1.4,    0.2,   -4.5,   -1.6,    1.5,    0.1,   -2.2,    4.3,   -0.7,   -1.3,   -1.6,   -1.6,   -1.9,   -1.5,   -0.7,   -0.8,   -1.0,   -2.0,   -2.1,   -1.3,   -2.1,   -2.5,   -1.6,   -2.2,   -1.3,   -3.4,   -4.5,   -5.7,   -6.5,   -7.0,   -6.6,   -5.6,   -4.9,   -4.9,   -4.7,   -4.2,   -4.4,   -4.4,   -4.8,   -4.4,   -4.9,   -4.5,   -4.1,   -5.8,   -7.4,   -8.9,   -9.1,   -9.8,  -10.0,   -9.8,  -11.3,  999.0,  999.0,  999.0,  999.0,  999.0,  999.0,  999.0,  999.0,  999.0,  999.0,  999.0,  -17.2,  -18.9,  -21.2,  -15.1,  -14.8,   -9.8,   -8.0,  999.0,    2.4,    4.4,    4.8,  999.0,  999.0,  999.0,  999.0,  999.0,    3.8,  999.0,  999.0,    1.3,    2.5,  999.0,  999.0,  999.0,  999.0,  999.0,  999.0,  999.0,  999.0,  999.0,  999.0,  999.0,  999.0,  999.0,  999.0
2007/03/16 01:10,    3.0,    3.6,    1.3,   -0.0,   -0.5,   -0.7,   -1.0,   -3.0,   -4.1,   -4.0,   -4.4,   -4.0,   -4.2,   -4.2,   -2.7,   -2.2,   -1.4,    5.5,    3.4,   -0.4,    2.1,    2.7,    2.1,   -1.1,   -4.7,   -4.1,    0.6,    0.8,   -0.3,    0.7,    0.0,   -2.2,   -2.1,   -2.5,   -2.3,   -1.5,   -1.5,   -1.5,   -1.6,   -2.0,   -2.7,   -2.5,   -1.9,   -2.6,   -3.0,   -3.1,   -3.3,   -3.3,   -4.2,   -5.1,   -6.1,   -6.6,   -6.9,   -6.9,   -6.5,   -5.3,   -4.9,   -4.5,   -4.3,   -4.2,   -4.2,   -4.1,   -4.1,   -4.4,   -4.7,   -5.0,   -6.0,   -7.3,   -8.9,   -8.1,   -9.1,   -9.3,  -10.7,  -11.3,  999.0,  -10.6,  999.0,  999.0,  999.0,  999.0,  -15.4,  999.0,  -17.0,  999.0,  -19.6,  -19.7,  -20.5,  -20.3,  -15.2,  -12.1,   -9.2,   -6.4,  999.0,  999.0,    5.1,    4.5,  999.0,  999.0,  999.0,  999.0,   -0.8,  999.0,    2.5,    2.5,    1.4,    2.5,    2.1,    1.7,  999.0,  999.0,  999.0,  999.0,  999.0,    2.7,   -4.1,  999.0,  999.0,  999.0,  999.0,  999.0
2007/03/16 01:20,    2.9,    3.4,    1.5,   -0.1,   -0.3,   -0.1,   -0.8,   -3.6,   -4.7,   -4.6,   -5.1,   -4.5,   -4.8,   -4.6,   -2.1,   -1.9,   -1.4,  999.0,    4.0,   -0.6,  999.0,  999.0,  999.0,    4.6,  999.0,  999.0,    4.1,    2.5,    2.4,   -0.6,   -0.8,   -1.9,   -2.8,   -3.3,   -2.7,   -1.2,   -1.2,   -2.1,   -2.7,   -2.8,   -3.2,   -2.9,   -2.6,   -3.4,   -3.5,   -4.1,   -4.2,   -5.0,   -5.9,   -6.3,   -6.3,   -6.3,   -6.1,   -6.5,   -6.6,   -5.5,   -4.7,   -4.6,   -4.5,   -4.4,   -4.1,   -3.5,   -3.4,   -3.9,   -4.6,   -4.3,   -3.8,   -7.8,   -8.3,   -7.9,   -8.6,   -9.4,  -11.6,  999.0,  999.0,  999.0,  999.0,  999.0,  999.0,  999.0,  -15.3,  999.0,  -16.5,  999.0,  -20.1,  -21.7,  -21.3,  -19.7,  -15.4,  -10.1,   -7.5,   -6.1,  999.0,  999.0,  999.0,  999.0,  999.0,  999.0,  999.0,  999.0,  999.0,  999.0,    2.5,    2.3,  999.0,    0.9,  999.0,    1.6,  999.0,  999.0,  999.0,  999.0,  999.0,  999.0,  999.0,  999.0,  999.0,  999.0,  999.0,  999.0
